Home > Weather > Bocholt > Past weeks

Flag for Germany Past Weather in Bocholt, North Rhine-Westphalia, Germany — Yesterday and Last 2 Weeks

Now
60 °F

Fog.


Feels Like: 60 °F
Forecast: 58 / 70 °F
Wind: 3 mph from East

Location: Twenthe

Current Time: May 31, 2016 at 4:16:36 AM

Latest Report: May 31, 2016 at 3:00 AM


Visibility: 3 mi

Pressure: 29.70 "Hg

Humidity: 97%

Dew Point: 60 °F

Location of BocholtLocation

Past Weather in Bocholt — Graph

°F

Bocholt Temperature Yesterday

Maximum temperature yesterday: 71 °F (at 1:00 PM)
Minimum temperature yesterday: 59 °F (at 6:00 AM)
Average temperature yesterday: 62 °F

High & Low Weather Summary for the Past Weeks

 TemperatureHumidityPressure
High74 °F (May 21, 5:00 PM)100% (May 23, 5:00 AM)30.11 "Hg (May 23, 5:00 AM)
Low35 °F (May 16, 6:00 AM)47% (May 21, 5:00 PM)29.63 "Hg (May 30, 8:00 PM)
Average57 °F82%29.91 "Hg
* Reported May 16 3:00 AM — May 31 3:00 AM, Bocholt, Weather by CustomWeather, © 2016

Note: Actual official high and low records may vary slightly from our data, if they occured in-between our weather recording intervals... More about our weather records

Advertising

Bocholt Weather History for the Previous 24 Hours

Scroll right to see more
 ConditionsComfort  
Time TempWeatherWind HumidityBarometerVisibility
3:00 AM
Tue, May 31
60 °FFog.3 mph97%29.70 "Hg3 mi
2:00 AM61 °FPassing clouds.3 mph99%29.69 "Hg2 mi
1:00 AM61 °FPassing clouds.3 mph99%29.68 "Hg2 mi
12:00 AM62 °FPassing clouds.3 mph98%29.67 "Hg2 mi
11:00 PM
Mon, May 30
63 °FPassing clouds.3 mph97%29.65 "Hg4 mi
10:00 PM62 °FFog.1 mph99%29.65 "Hg0 mi
9:00 PM64 °FLight rain. Overcast.2 mph97%29.64 "Hg5 mi
8:00 PM64 °FHeavy rain. Low clouds.7 mph93%29.63 "Hg2 mi
1:00 PM71 °FOvercast.5 mph76%29.65 "Hg7 mi
12:00 PM68 °FFog.7 mph83%29.65 "Hg5 mi
11:00 AM63 °FFog.5 mph90%29.67 "Hg4 mi
10:00 AM62 °FFog.6 mph93%29.67 "Hg3 mi
9:00 AM60 °FFog.6 mph97%29.68 "Hg2 mi
7:00 AM59 °FLow clouds.5 mph99%29.68 "Hg1 mi
6:00 AM59 °FLow clouds.5 mph98%29.68 "Hg2 mi
5:00 AM59 °FFog.6 mph95%29.70 "Hg3 mi
4:00 AM60 °FFog.5 mph94%29.72 "Hg4 mi
Weather by CustomWeather, © 2016

See weather overviewHow to use our weather pages